Theta_e
360 355 354 356 354 350 354 355 358 360 363 365 363 359 359 355 356 363 359 360 357 357
356 358 354 362 356 354 359 356 359 363 363 363 362 362 349 349 353 361 364 364 359 363
352 355 357 357 358 360 361 363 362 362 361 362 362 361 359 353 356 359 362 366 358 363
353 355 358 357 359 361 363 365 364 364 363 362 360 360 360 356 357 357 357 356 358 360
354 357 355 358 359 361 362 365 366 364 363 363 362 360 358 355 355 354 352 352 359 357
353 355 356 357 359 360 362 364 364 364 362 363 362 362 360 359 357 357 347 349 352 357
355 356 356 358 360 361 363 363 363 364 365 363 364 363 362 361 359 355 348 344 349 358
359 360 361 361 361 362 363 363 365 365 364 365 363 361 362 362 359 358 354 352 350 355
360 360 359 361 362 363 362 363 364 365 365 365 359 346 346 357 360 361 357 353 354 360
357 356 359 360 360 360 359 360 360 361 361 358 359 339 340 344 359 358 358 359 359 360
352 354 354 357 356 355 355 355 355 354 354 352 350 335 336 341 357 357 362 364 364 365
349 350 351 351 353 352 353 353 352 353 353 352 352 332 333 338 350 354 358 363 366 364
341 343 347 350 350 351 354 352 350 350 348 341 349 333 329 335 345 348 352 353 354 342
339 339 340 343 348 349 349 349 350 351 349 349 348 347 325 326 344 343 340 343 348 359
Wind_Speed
15 12 12 12 12 10 10 9 8 9 10 10 5 5 7 1 7 9 9 11 10 7
15 16 13 12 12 11 11 9 10 11 11 10 11 10 8 7 8 10 11 10 11 8
15 15 14 13 14 13 12 12 9 11 11 10 11 13 14 9 9 12 9 7 11 10
13 14 13 13 14 14 13 12 12 11 11 12 12 14 15 13 11 12 10 11 11 12
12 13 13 13 14 13 13 13 12 12 11 11 12 13 15 14 10 14 13 10 12 15
13 13 13 13 14 14 14 14 14 14 14 13 14 14 15 14 14 14 8 11 13 17
10 10 11 12 13 14 14 14 16 16 15 16 16 16 16 16 16 17 12 13 16 16
7 8 9 10 11 12 13 13 14 14 16 16 15 14 18 18 19 18 19 18 16 17
5 7 9 10 9 10 11 12 13 14 14 12 9 11 13 16 17 18 18 16 19 19
3 5 7 8 9 10 10 11 10 10 8 8 10 1 6 11 16 16 18 18 16 18
6 5 4 6 7 8 9 10 10 11 11 11 12 10 10 13 18 17 18 17 18 17
9 8 8 7 4 6 8 8 9 11 12 13 13 9 11 10 14 16 20 18 17 18
10 10 9 9 8 8 6 7 9 10 11 12 13 9 14 12 12 12 10 12 15 16
9 10 10 10 9 9 9 9 10 11 10 10 11 10 14 16 13 11 9 10 8 12
Wind_Direction
228 231 233 232 239 237 233 220 209 206 224 225 201 162 172 148 253 223 222 227 236 232
229 235 246 243 237 241 233 232 212 203 212 204 198 192 178 180 215 246 226 225 230 229
230 232 241 243 236 243 244 230 211 205 211 209 200 198 197 201 203 207 222 227 231 220
230 230 228 237 234 235 236 232 230 215 209 206 203 203 203 210 209 217 204 224 236 240
235 243 234 229 239 225 227 222 225 225 222 212 208 204 211 213 213 209 201 226 249 235
226 225 232 236 232 232 220 220 218 214 217 213 211 210 208 214 208 214 194 214 241 255
235 235 239 236 233 232 225 221 216 215 215 213 210 210 214 208 206 209 215 217 232 225
247 250 244 251 247 239 238 233 237 232 225 224 218 213 209 209 205 208 216 219 224 235
268 256 261 260 250 251 253 249 249 246 246 246 243 241 198 217 216 217 213 223 224 230
323 285 279 268 264 261 259 261 259 261 258 258 263 321 191 224 231 229 229 229 221 221
349 338 329 299 278 277 269 258 247 242 247 254 256 235 204 215 230 239 243 235 232 227
355 341 328 310 267 247 250 255 256 256 260 260 262 207 207 222 236 239 239 239 232 228
346 338 327 318 303 295 284 261 255 260 261 257 257 213 205 215 249 255 248 251 244 232
330 324 312 315 311 298 286 281 275 264 255 250 227 219 195 211 233 246 250 260 250 231